Location: Newark
(45.2500°N, 7.5833°E)
Time: 20:52:52
(UTC+00:00)

SR - Pass Details

Date: 04 February 2020
Orbit: 575 x 880 km, 66.7° (Epoch: 22 February)

Event Time Altitude Azimuth Distance (km) Brightness Sun altitude
Rises 17:27:55 0° 155° (SSE) 3,414 ? -8.8°
Reaches altitude 10° 17:31:42 10° 130° (SE) 2,516 ? -9.4°
Maximum altitude 17:34:25 14° 102° (ESE) 2,285 ? -9.9°
Enters shadow 17:35:55 12° 86° (E) 2,368 ? -10.1°
